Location: Zagreb
(45.8000°N, 16.0000°E)
Time: 00:14:47
(UTC+02:00)

Explorer 11/Cluster Stage 4 - Visible Passes

Search period start: 12 August 2020 00:00
Search period end: 22 August 2020 00:00
Orbit: 467 x 1258 km, 28.8° (Epoch: 11 August)

Date Brightness Start Highest point End Pass type
(mag) Time Alt. Az. Time Alt. Az. Time Alt. Az.
12 Aug 9.0 22:31:04 10° SSW 22:33:14 15° SSW 22:33:14 15° SSW visible
13 Aug 8.8 22:19:47 10° SSW 22:23:25 18° S 22:23:25 18° S visible
14 Aug 8.7 22:08:35 10° SSW 22:13:25 20° S 22:13:25 20° S visible
15 Aug 8.6 21:57:27 10° SW 22:02:53 21° S 22:03:16 21° SSE visible
15 Aug 9.5 23:45:10 10° SW 23:45:23 11° SW 23:45:23 11° SW visible
16 Aug 8.6 21:46:24 10° SW 21:51:46 21° S 21:52:58 20° SSE visible
16 Aug 9.3 23:34:13 10° SW 23:35:06 13° SW 23:35:06 13° SW visible
17 Aug 8.6 21:35:24 10° SW 21:40:39 21° S 21:42:35 19° SSE visible
17 Aug 9.2 23:23:20 10° SW 23:24:42 14° SW 23:24:42 14° SW visible
18 Aug 8.6 21:24:28 10° SW 21:29:33 21° S 21:32:08 18° SSE visible
18 Aug 9.2 23:12:31 10° SW 23:14:14 14° SW 23:14:14 14° SW visible
19 Aug 8.6 21:13:37 10° SW 21:18:28 20° S 21:21:37 16° SSE visible
19 Aug 9.1 23:01:48 10° SW 23:03:44 15° SW 23:03:44 15° SW visible
20 Aug 8.7 21:02:48 10° SW 21:07:24 19° S 21:11:07 14° SE visible
20 Aug 9.1 22:51:11 10° SW 22:53:12 14° SSW 22:53:12 14° SSW visible
21 Aug 8.7 20:52:04 10° SW 20:56:22 18° S 21:00:34 11° SE visible
21 Aug 9.1 22:40:44 10° SW 22:42:40 13° SSW 22:42:40 13° SSW visible
